Dewpoint
49 49 49 49 49 48 50 49 49 49 49 48 48 48 49 49 50 49 50 49 49 49 49 48 48 48 49 48 48 48 49 49 49 48 48 49 49 49 51 51 51 52
49 51 50 50 50 51 50 50 49 49 49 48 48 48 47 49 49 48 48 48 50 48 49 48 49 49 48 48 48 47 47 47 47 51 49 48 48 48 48 48 49 51
50 51 50 50 50 51 50 50 50 49 49 49 48 48 49 49 48 48 48 48 48 48 48 48 48 49 48 47 47 46 46 46 46 47 48 47 47 47 47 48 48 49
50 51 51 50 50 50 50 50 49 49 49 49 48 49 50 49 47 48 49 53 47 48 47 47 47 47 47 47 46 46 46 46 46 46 46 46 47 47 47 48 48 47
50 51 51 50 50 50 50 50 49 49 49 49 48 48 50 48 47 47 46 47 46 46 46 47 46 46 46 46 46 45 45 45 45 45 45 45 46 47 47 47 46 46
50 50 51 50 50 49 50 49 49 49 48 47 48 50 47 47 46 46 46 45 46 46 45 45 45 45 45 44 44 44 44 45 45 45 45 44 45 45 46 46 46 45
50 50 50 50 49 49 49 49 49 49 48 48 48 47 47 46 46 46 46 46 45 46 45 44 43 43 43 43 43 43 43 44 44 44 44 44 45 45 45 45 45 44
50 50 49 49 48 49 48 48 49 48 48 48 47 47 47 46 46 45 45 45 44 44 44 44 43 43 43 42 42 42 42 44 44 43 43 44 43 43 44 44 44 43
50 49 49 48 48 48 48 48 48 48 48 47 47 46 46 46 46 45 45 44 43 44 43 42 43 42 42 42 42 42 42 42 44 43 43 43 43 43 43 43 43 43
49 49 48 48 47 48 48 48 48 47 48 47 46 45 46 46 45 45 44 43 43 43 42 42 42 42 42 42 42 42 42 42 42 42 43 43 42 42 42 43 43 42
49 49 48 47 47 47 47 47 47 47 47 46 46 45 45 44 45 44 43 42 42 42 41 41 41 41 41 41 42 42 42 42 43 43 43 43 43 43 44 43 43 43
49 48 48 47 47 47 47 47 47 47 47 46 46 46 44 44 43 42 43 41 41 41 41 41 41 41 41 41 42 42 43 43 43 43 44 43 43 43 43 43 42 42
49 49 48 47 47 47 47 47 47 47 46 46 46 45 44 42 41 40 43 40 41 41 41 40 41 41 41 41 41 41 41 42 42 42 42 42 42 42 42 42 42 42
49 49 48 47 47 47 47 47 47 46 46 45 45 43 42 41 40 40 39 41 40 40 41 42 41 41 40 41 41 41 41 41 41 42 42 42 43 42 43 42 42 42
49 48 48 48 48 47 47 47 46 46 45 44 43 42 43 41 41 40 39 39 40 40 40 41 40 40 41 40 40 40 40 40 40 40 40 40 40 40 40 40 41 41
48 48 47 47 47 47 46 46 45 45 44 43 41 41 41 41 40 40 39 38 38 38 38 39 39 40 42 42 41 40 40 39 39 39 39 38 39 38 38 39 39 40
47 47 47 47 47 46 45 45 44 43 42 41 40 40 39 39 40 39 38 38 38 37 37 38 39 40 40 38 38 39 39 38 38 38 38 38 38 37 37 37 38 38
48 48 47 46 46 45 44 44 43 42 41 40 39 39 39 39 38 38 37 37 38 37 37 38 38 40 38 38 38 38 38 39 38 38 38 37 37 36 36 37 37 37
48 47 46 45 45 44 43 43 42 41 40 39 38 39 38 37 37 36 36 37 37 36 36 37 37 39 38 38 38 37 37 38 38 37 37 37 37 37 37 37 37 37
48 47 46 46 45 44 43 42 41 40 39 38 38 38 36 36 36 35 35 35 36 36 36 36 37 38 37 38 37 37 36 37 37 37 37 37 37 36 36 36 36 36
46 46 46 44 44 43 42 41 40 38 38 37 37 36 35 35 35 34 35 37 35 35 34 35 37 37 36 36 36 36 36 36 36 36 35 35 35 35 35 35 35 36
46 45 44 43 43 41 41 39 38 37 37 37 36 35 35 35 34 34 34 33 34 33 33 34 35 36 36 36 36 36 36 36 35 35 34 34 34 34 34 34 34 34
45 44 43 42 40 40 39 38 37 37 37 37 35 35 34 33 33 33 34 34 33 34 33 34 34 35 35 35 35 35 35 34 34 34 34 33 33 33 33 33 34 33
45 44 42 41 39 38 37 37 36 36 36 37 35 34 33 33 33 33 33 33 33 34 34 33 34 35 36 35 35 35 35 34 33 33 32 32 32 32 33 32 33 36
44 43 42 40 39 37 36 35 35 35 36 36 35 34 33 33 36 31 31 32 33 34 38 37 35 35 36 35 35 35 35 34 33 33 32 32 32 31 31 32 31 34
43 43 41 39 37 36 35 35 36 35 35 34 33 33 33 32 33 32 31 32 32 32 34 34 34 33 34 34 35 35 35 35 34 33 32 32 32 32 32 32 32 32